Regional Weather Roundup
Issued by NWS

Home | Current Version | Previous Version | Text Only | Print | Product List | Glossary On
Versions: 1 2 3 4 5 6 7 8 9 10 11 12 13 14 15 16 17 18 19 20 21 22 23 24 25 26 27 28 29 30 31 32 33 34 35 36 37 38 39 40 41 42 43 44 45 46 47 48 49 50
000
ASUS45 KREV 072210
RWRNV
NEVADA REGIONAL WEATHER ROUNDUP
NATIONAL WEATHER SERVICE RENO NV
200 PM PST WED DEC 07 2016

NOTE: "FAIR" INDICATES FEW OR NO CLOUDS BELOW 12,000 FEET WITH NO
SIGNIFICANT WEATHER AND/OR OBSTRUCTIONS TO VISIBILITY.

NVZ001-003-004-072300-
WESTERN NEVADA

CITY           SKY/WX    TMP DP  RH WIND       PRES   REMARKS
RENO           PTSUNNY   37  16  42 S7        30.12S
CARSON CITY    FAIR      32  16  51 E10       30.13S
MINDEN         FAIR      32  16  51 N7        30.12S
PYRAMID LAKE     N/A     36 N/A N/A E13         N/A
FALLON         PTSUNNY   36  15  42 NE3       30.15F
LOVELOCK       SUNNY     34  16  47 CALM      30.18F
$$

NVZ002-CAZ072-073-072300-
NORTHERN AND CENTRAL SIERRA

CITY           SKY/WX    TMP DP  RH WIND       PRES   REMARKS
S. LAKE TAHOE  CLOUDY    34  13  41 NE6       30.04S
TRUCKEE        CLOUDY    30  18  59 CALM      30.06
SQUAW VLY 8000   N/A     30  -2  24 SW7         N/A
SUSANVILLE     CLOUDY    32  18  55 E3        30.14F
MAMMOTH LAKES  FAIR      36   6  28 SE5       30.05S
BRIDGEPORT       N/A     39   9  29 E8        29.99F
$$

NVZ030-031-036-072300-
NORTHERN NEVADA

CITY           SKY/WX    TMP DP  RH WIND       PRES   REMARKS
ELKO           SUNNY     27   2  34 N3        30.20R
WINNEMUCCA     MOSUNNY   28  16  60 NE10      30.20F
WENDOVER       SUNNY     27   7  43 E5        30.28S
$$

NVZ035-037-072300-
CENTRAL NEVADA

CITY           SKY/WX    TMP DP  RH WIND       PRES   REMARKS
ELY            SUNNY     28   1  31 NE6       30.13S
EUREKA           N/A     26   4  38 VRB5      30.13F
$$

NVZ013-014-072300-
SOUTH CENTRAL NEVADA

CITY           SKY/WX    TMP DP  RH WIND       PRES   REMARKS
TONOPAH        SUNNY     35   9  33 CALM      30.12F
$$

NVZ017-020-022-072300-
SOUTHERN NEVADA

CITY           SKY/WX    TMP DP  RH WIND       PRES   REMARKS
LAS VEGAS      PTSUNNY   54   3  12 N6        30.13F
N. LAS VEGAS   MOSUNNY   52   6  15 NW3       30.13F
NELLIS AFB     MOSUNNY   53   4  13 N17       30.13F
HENDERSON      MOSUNNY   51   7  16 N10       30.14F
MERCURY        MOSUNNY   47   9  21 SE13      30.12S
$$



USA.gov is the U.S. government's official web portal to all federal, state and local government web resources and services.